AB1IG Weather Reports


Display with metric or nautical units.
time (UTC)temp
F
wind
direction
speed
MPH
gust
MPH
rain 1hr
in
rain 24hr
in
rain mn
in
humidity
%
barometer
mb
20260902230054 100 167 2.0 6.0 0.00 0.00 0.00 33 1006.6
20260902224606 101 128 2.0 5.0 0.00 0.00 0.00 31 1006.7
20260902223057 101 224 0.0 10.0 0.00 0.00 0.00 31 1006.6
20260902221545 102 197 2.0 6.0 0.00 0.00 0.00 31 1006.9
20260902220043 102 326 2.0 9.0 0.00 0.00 0.00 32 1006.9
20260902214608 102 290 1.0 10.0 0.00 0.00 0.00 33 1007.0
20260902213041 102 105 2.0 5.0 0.00 0.00 0.00 32 1007.2
20260902211537 102 113 2.0 7.0 0.00 0.00 0.00 33 1007.3
20260902210037 102 257 3.0 8.0 0.00 0.00 0.00 31 1007.5
20260902204533 102 188 0.0 10.0 0.00 0.00 0.00 35 1007.8
20260902203030 102 255 2.0 6.0 0.00 0.00 0.00 34 1007.9
20260902201533 101 167 2.0 6.0 0.00 0.00 0.00 33 1008.2
20260902200024 101 187 2.0 9.0 0.00 0.00 0.00 35 1008.4
20260902194534 101 108 2.0 6.0 0.00 0.00 0.00 37 1008.5
20260902193021 101 172 0.0 11.0 0.00 0.00 0.00 36 1008.8
20260902191518 101 158 3.0 7.0 0.00 0.00 0.00 37 1008.9
20260902190015 100 326 3.0 9.0 0.00 0.00 0.00 37 1009.2
20260902184512 100 83 1.0 8.0 0.00 0.00 0.00 38 1009.5
20260902183010 100 150 1.0 5.0 0.00 0.00 0.00 36 1009.7
20260902181507 99 300 2.0 4.0 0.00 0.00 0.00 38 1010.1
20260902180008 99 232 3.0 8.0 0.00 0.00 0.00 38 1010.3
20260902174514 98 176 1.0 5.0 0.00 0.00 0.00 40 1010.5
20260902173001 98 241 2.0 5.0 0.00 0.00 0.00 40 1010.7
20260902171600 98 120 2.0 6.0 0.00 0.00 0.00 41 1010.8
20260902170058 96 302 1.0 6.0 0.00 0.00 0.00 43 1011.0
20260902164554 95 208 2.0 7.0 0.00 0.00 0.00 44 1011.2
20260902163049 94 233 2.0 6.0 0.00 0.00 0.00 45 1011.3
20260902161546 94 221 1.0 5.0 0.00 0.00 0.00 46 1011.4
20260902160042 92 195 2.0 7.0 0.00 0.00 0.00 49 1011.4
20260902154538 91 152 1.0 7.0 0.00 0.00 0.00 50 1011.5
20260902153035 89 235 3.0 9.0 0.00 0.00 0.00 52 1011.5
20260902151530 88 139 1.0 8.0 0.00 0.00 0.00 54 1011.6
20260902150028 86 156 2.0 9.0 0.00 0.00 0.00 57 1011.6
20260902144529 85 235 4.0 9.0 0.00 0.00 0.00 58 1011.7
20260902143027 84 281 1.0 8.0 0.00 0.00 0.00 61 1011.6
20260902141532 83 122 2.0 7.0 0.00 0.00 0.00 63 1011.7
20260902140025 81 167 2.0 9.0 0.00 0.00 0.00 65 1011.6
20260902134524 81 149 3.0 8.0 0.00 0.00 0.00 66 1011.6
20260902133025 80 347 1.0 9.0 0.00 0.00 0.00 68 1011.6
20260902131522 79 229 1.0 6.0 0.00 0.00 0.00 69 1011.6
20260902130026 78 232 2.0 6.0 0.00 0.00 0.00 69 1011.6
20260902124519 78 297 2.0 6.0 0.00 0.00 0.00 69 1011.4
20260902123017 78 290 1.0 6.0 0.00 0.00 0.00 69 1011.2
20260902121515 78 64 1.0 7.0 0.00 0.00 0.00 69 1011.0
20260902120013 78 204 2.0 6.0 0.00 0.00 0.00 68 1010.9
20260902114511 79 173 1.0 6.0 0.00 0.00 0.00 67 1010.7
20260902113008 79 259 2.0 7.0 0.00 0.00 0.00 66 1010.6
20260902111506 80 266 1.0 6.0 0.00 0.00 0.00 65 1010.5
20260902110005 80 249 2.0 7.0 0.00 0.00 0.00 64 1010.4
20260902104502 80 145 2.0 7.0 0.00 0.00 0.00 64 1010.4
20260902103105 80 224 0.0 6.0 0.00 0.00 0.00 63 1010.3
20260902101557 81 269 2.0 7.0 0.00 0.00 0.00 63 1010.3
20260902100100 81 252 1.0 8.0 0.00 0.00 0.00 62 1010.2
20260902094556 81 153 1.0 6.0 0.00 0.00 0.00 62 1010.2
20260902093054 81 143 1.0 7.0 0.00 0.00 0.00 61 1010.2
20260902091603 82 253 1.0 7.0 0.00 0.00 0.00 60 1010.2
20260902090051 82 229 1.0 7.0 0.00 0.00 0.00 59 1010.1
20260902084548 82 208 2.0 6.0 0.00 0.00 0.00 58 1010.0
20260902083109 83 287 2.0 8.0 0.00 0.00 0.00 57 1010.1
20260902081546 83 184 3.0 8.0 0.00 0.00 0.00 57 1010.0
20260902080046 83 253 1.0 6.0 0.00 0.00 0.00 56 1010.1
20260902074544 83 245 0.0 5.0 0.00 0.00 0.00 55 1010.1
20260902073042 83 177 1.0 5.0 0.00 0.00 0.00 54 1010.0
20260902071541 84 283 1.0 6.0 0.00 0.00 0.00 54 1010.1
20260902070042 84 95 1.0 5.0 0.00 0.00 0.00 53 1010.1
20260902064543 84 274 0.0 5.0 0.00 0.00 0.00 53 1010.1
20260902063041 84 200 1.0 6.0 0.00 0.00 0.00 52 1010.1
20260902061545 85 207 1.0 5.0 0.00 0.00 0.00 51 1010.1
20260902060032 86 246 0.0 5.0 0.00 0.00 0.00 51 1010.1
20260902054532 86 79 2.0 7.0 0.00 0.00 0.00 49 1010.0
20260902053027 87 181 1.0 7.0 0.00 0.00 0.00 49 1010.0
20260902051526 87 239 1.0 8.0 0.00 0.00 0.00 49 1009.9
20260902050023 87 205 2.0 5.0 0.00 0.00 0.00 48 1009.9
20260902044528 88 239 1.0 6.0 0.00 0.00 0.00 47 1009.9
20260902043033 88 298 1.0 6.0 0.00 0.00 0.00 46 1009.8
20260902041522 88 82 2.0 5.0 0.00 0.00 0.00 45 1010.0
20260902040022 89 259 2.0 7.0 0.00 0.00 0.00 44 1010.0
20260902034521 89 257 0.0 4.0 0.00 0.00 0.00 44 1010.0
20260902033020 89 99 0.0 4.0 0.00 0.00 0.00 43 1009.9
20260902031533 90 228 1.0 5.0 0.00 0.00 0.00 43 1009.6
20260902030019 89 217 1.0 4.0 0.00 0.00 0.00 43 1009.4
20260902024520 89 245 0.0 1.0 0.00 0.00 0.00 44 1009.2
20260902023029 90 231 0.0 2.0 0.00 0.00 0.00 42 1008.9
20260902021517 91 218 0.0 4.0 0.00 0.00 0.00 41 1008.7
20260902020024 91 126 0.0 4.0 0.00 0.00 0.00 41 1008.5
20260902014520 92 335 0.0 4.0 0.00 0.00 0.00 40 1008.4
20260902013017 92 160 1.0 5.0 0.00 0.00 0.00 40 1008.2
20260902011517 93 246 0.0 4.0 0.00 0.00 0.00 38 1008.3
20260902010021 94 271 0.0 4.0 0.00 0.00 0.00 37 1008.2
20260902004515 94 136 1.0 5.0 0.00 0.00 0.00 35 1008.1
20260902003015 95 128 1.0 6.0 0.00 0.00 0.00 34 1008.0
20260902001514 97 215 0.0 3.0 0.00 0.00 0.00 33 1008.1
20260902000013 96 201 1.0 5.0 0.00 0.00 0.00 33 1008.1
20260901234513 97 255 1.0 6.0 0.00 0.00 0.00 33 1008.2
20260901233114 98 247 0.0 5.0 0.00 0.00 0.00 31 1008.2
20260901231511 99 115 1.0 7.0 0.00 0.00 0.00 30 1008.4